Погода в Вилюйске

Погода в Вилюйске : погода сейчас, прогноз погоды и архив. Всё, что Вы хотите узнать о погоде в Вилюйске!

Хотите узнать прогноз погоды в Вилюйске? Тогда Вам сюда: Погода в Вилюйске

Поиск расширенной информации на нашем сайте:

Другие новости

Новости СМИ2

Главная страница сайта

Новости сайта

02.10.2013

Напоминаем, что на нашем новом сайте вы можете получить высокодетализированные прогнозы погоды по пунктам России, СНГ и мира (включающие важные для авиации метеовеличины, такие как направление и скорость ветра, видимость, явления погоды, количество и форма облачности, нижняя и верхняя граница облачности), а также ознакомиться с разнообразными материалами по авиационной метеорологии и подборкой полезных ссылок на эту тему.

Сайт Метеоцентр.Азия посвящён разработке технологий оптимизации авиаметеорологического обслуживания, включая проектирование и перспективное создание нескольких автоматизированных авиаметеорологических систем:
- система выпуска высокодетальных прогностических карт явлений погоды для нижнего воздушного пространства по России и ближнему зарубежью;
- система верификации прогнозов TAF (выпускаемых синоптиками официальных АМСГ РФ и ближнего зарубежья) и AUTOTAF (выпускаемых сайтом Метеоцентр.Азия) - выявление ошибок, онлайн-сопоставление с фактической погодой METAR, автоматическое внесение коррективов в прогнозы при резком отклонении фактической погоды от прогноза, подсчёт оправдываемости прогнозов по элементам и в целом;
- система обработки, анализа и отображения авиаметеорологической информации для применения провайдерами метеорологической информации.

Рекомендуем: Одежда и обувь Adidas: адидас дисконт каталог. Купить Фирменные товары adidas.

Погода в Вилюйске - сегодня

Время (UTC), дата Ветер
(°,м/с) 
Видим.   Явления Облачность Т
(°С)
Тd
(°С)
f(%) Тe
(°С)
Pmin
(гПа)
dP
(гПа)
Po
(мм)
O2
(г/м3)
Тmin Tmax R s Состояние
почвы
03 26.03.17 220 (ЮЗ) 20000 м    4/0 верхняя 
[Ci fib]
+0.4 -9.8 46 1014.8  -0.2  751  303           
06 26.03.17 250 (З) 20000 м    5/0 верхняя 
[Ci fib]
+4.9 -10.7 31 +4  1013.1  -1.5  750  298           
09 26.03.17 200 (Ю) 20000 м    4/0 верхняя 
[Ci fib]
+5.1 -11.5 29 +5  1012.2  -0.9  749  297           
12 26.03.17 170 (Ю) 20000 м    4/0 верхняя 
[Ci fib]
-0.4 -13.6 36 -1  1012  -0.5  749  303    +6       
15 26.03.17 170 (Ю) 20000 м    ясно 
-2.5 -14.1 40 -4  1010.7  -1.4  747  305           
18 26.03.17 160 (Ю) 20000 м    ясно 
-4.5 -15.5 42 -6  1009.3  -1.5  746  307           
21 26.03.17 170 (Ю) 20000 м    ясно 
-4 -14.6 43 -5  1007  -2.2  745  306           
00 27.03.17 190 (Ю) 20000 м    10/0 средняя, верхняя 
[Ac trans|Cs]
-1.8 -12.2 45 -4  1005.3  -1.5  744  303  -5.2      39  равномерный
сухой снег
100% 
03 27.03.17 210 (ЮЗ) 20000 м    9/0 средняя, верхняя 
[Ac trans|Cs]
+2.8 -10.4 37 +1  1004.1  -1  743  297           
06 27.03.17 230 (ЮЗ) 20000 м    10/10 600 м 
[Sc]
+2.5 -4.9 58 1005.6  1.5  744  298           
09 27.03.17 260 (З) 20000 м  {ливн. осадки}  10/4 600 м кучево-дожд., средняя 
[Cb calv|As trans]
+1.4 -6.1 57 -1  1007.9  2.1  746  299           
12 27.03.17 220 (ЮЗ) 20000 м  {ливн. осадки}  8/0 средняя, верхняя 
[As trans|Ci fib]
-1.5 -8.3 60 -1  1010.5  2.5  747  304    +4.2  0.0     
15 27.03.17 230 (ЮЗ) 20000 м    ясно 
-5.1 -11 63 -6  1012.4  1.6  749  308           
18 27.03.17 250 (З) 20000 м    ясно 
-7.1 -12.9 63 -9  1014.3  1.8  750  311           
21 27.03.17 250 (З) 20000 м    4/0 средняя 
[Ac trans]
-8.1 -12.2 72 -10  1017  2.7  752  313           
00 28.03.17 290 (З) 20000 м    3/0 средняя 
[Ac trans]
-6.7 -10.9 72 -8  1020.4  3.4  755  313  -9.7      38  равномерный
сухой снег
100% 
03 28.03.17 200 (Ю) 20000 м    10/3 600 м верхняя 
[Cu hum|Cs]
-0.3 -10.5 46 -1  1021.4  1.3  755  306           
06 28.03.17 310 (СЗ) 20000 м    10/8 600 м кучево-дожд., верхняя 
[Cb calv|Ci fib]
+1.1 -10.2 43 1021.8  0.5  756  304           
09 28.03.17 360 (С) 20000 м    10/8 600 м кучево-дожд., верхняя 
[Cb calv|Ci fib]
+1.2 -11.1 39 +2  1022.4  0.5  756  304           
12 28.03.17 100 (В) 20000 м    ясно 
-3.6 -12.2 51 -3  1023.7  1.1  757  310    +2.5       
15 28.03.17 180 (Ю) 20000 м    ясно 
-6.6 -12.7 62 -6  1023.8  -0.1  757  314           
18 28.03.17 180 (Ю) 20000 м    ясно 
-12.1 -15.6 75 -12  1023.7  -0.4  757  320           
21 28.03.17 200 (Ю) 20000 м    ясно 
-12.7 -16.2 75 -15  1023.3  -0.4  756  321           
00 29.03.17 200 (Ю) 20000 м    3/0 верхняя 
[Ci fib]
-7.9 -13.5 64 -8  1022.8  -0.2  756  315  -13.2      38  равномерный
сухой снег
100% 
03 29.03.17 190 (Ю) 20000 м    4/0 верхняя 
[Ci fib]
+1.7 +11.3 100 +4  1021.5  -0.8  756  300           
Время (UTC), дата Ветер
(°,м/с) 
Видим.   Явления Облачность Т
(°С)
Тd
(°С)
f(%) Тe
(°С)
Pmin
(гПа)
dP
(гПа)
Po
(мм)
O2
(г/м3)
Тmin Tmax R s Состояние
почвы

Для получения пояснительной информации подведите курсор к названию столбца.

ПОГОДА в Вилюйске - архив

Всё, что Вы хотите узнать о погоде в Вилюйске - удобно и подробно!

Выберите нужную дату (начиная с 1 января 2015* года) и нажмите кнопку "Найти".
Будут отображены архивные сводки погоды по пункту Вилюйск, начиная с указанной даты.


Отображать данные в формате CSV (для использования в таблицах Excel)


Внимание! Наш архив погоды предназначен исключительно для личного некоммерческого использования в познавательных целях. Если Вам необходимы официальные справки о состоянии погоды (для производственных, юридических, коммерческих и т.п. целей), обращайтесь в органы Росгидромета.

*Примечание: данная дата относится к архиву по метеостанциям СССР (Россия, СНГ, Балтия).
Архив по метеостанциям Зарубежной Европы и Азии (кроме Китая) хранится 10 дней, по другим регионам земного шара (Китай, Африка, Америка, Австралия, Океания) - 1 день.

Вилюйск - район местоположения метеостанции


Название, широта, долгота, высота метеостанции:
Вилюйск 63.8°ш. 121.6°д. 111 м над ур. моря [Российская Федерация]

Дополнительная информация

В oтличие oт бoльшинства пoгoдных сайтoв мы публикуем пoдрoбную метеoинфoрмацию в детальнoм прoфессиoнальнoм фoрмате.

Характеристики температуры и влажнoсти вoздуха измеряются на высoте 2 м в тени вдали oт зданий и деревьев.
Скoрoсть ветра измеряется на высoте 10 м (на урoвне рoста челoвека скoрoсть ветра ниже в 1.5-2 раза). Если метеoстанция нахoдится в гoрoде или в лесу, тo скoрoсть ветра занижена на 2-4 м/с пo сравнению с oткрытым местoм. Скoрoсть ветра над акватoриями крупных рек и oзёр, а также на вершинах хoлмoв на 2-5 м/с выше, чем в oбычных услoвиях.
Атмoсфернoе давление в разных тoчках местнoсти мoжет значительнo oтличаться oт давления на метеoстанции, в зависимoсти oт услoвий рельефа (при пoдъёме на 10 м давление пoнижается примернo на 1 мм рт.ст.).